Peosta, IA

2:25 AM CST on February 24, 2017 (GMT -0600)
Dubuque Regional

Weather History for KDBQ - November, 2013

Change the Weather History Date:

Friday, November 29, 2013

  Actual Average Record
Temperature  
Mean Temperature 20 °F 29 °F  
Max Temperature 31 °F 37 °F 64 °F (1998)
Min Temperature 8 °F 22 °F -11 °F (1976)
Degree Days  
Heating Degree Days 45 36  
Month to date heating degree days 937 814  
Since 1 July heating degree days 1568 1463  
Cooling Degree Days 0 0  
Month to date cooling degree days 0 0  
Year to date cooling degree days 640 643  
Moisture  
Dew Point 16 °F    
Average Humidity 78    
Maximum Humidity 92    
Minimum Humidity 63    
Precipitation  
Precipitation 0.00 in 0.07 in 1.65 in (1975)
Month to date precipitation 1.93 2.27  
Year to date precipitation 36.81 34.37  
Snow  
Snow 0.00 in 0.20 in - ()
Month to date snowfall 3.9 2.6  
Since 1 July snowfall 3.9 2.6  
Since 1 September snowfall 3.9 2.6  
Snow Depth 1.00 in    
Sea Level Pressure  
Sea Level Pressure 30.51 in    
Wind  
Wind Speed 9 mph (SSE)    
Max Wind Speed 17 mph    
Max Gust Speed 22 mph    
Visibility 10 miles    
Events      
T = Trace of Precipitation, MM = Missing Value Source: NWS Daily Summary

Daily Weather History Graph

Daily Weather History Graph

Search for Another Location

Airport or City:

Trip Planner

Search our weather history database for the weather conditions in past years. The results will help you decide how hot, cold, wet, or windy it might be!

Date:

Astronomy

Nov. 29, 2013 Rise Set
Actual Time 7:10 AM CST 4:31 PM CST
Civil Twilight 6:39 AM CST 5:02 PM CST
Nautical Twilight 6:04 AM CST 5:37 PM CST
Astronomical Twilight 5:30 AM CST 6:11 PM CST
Moon 3:12 AM CST (11/29) 2:19 PM CST (11/29)
Length of Visible Light 10h 23m
Length of Day
9h 21m
Waning Crescent, 14% of the Moon is Illuminated
Nov 29
Waning Crescent
Dec 2
New
Dec 9
First Quarter
Dec 17
Full
Dec 25
Last Quarter

Hourly Weather History & Observations

Time (CST) Temp. Windchill Dew Point Humidity Pressure Visibility Wind Dir Wind Speed Gust Speed Precip Events Conditions
12:53 AM 10.0 °F - 7.0 °F 87% 30.55 in 9.0 mi Calm Calm - N/A   Clear
1:53 AM 10.9 °F - 7.0 °F 84% 30.56 in 9.0 mi Calm Calm - N/A   Clear
2:53 AM 12.0 °F - 8.1 °F 84% 30.57 in 9.0 mi Calm Calm - N/A   Clear
3:53 AM 12.0 °F - 9.0 °F 88% 30.58 in 9.0 mi Calm Calm - N/A   Clear
4:53 AM 12.0 °F - 9.0 °F 88% 30.59 in 9.0 mi Calm Calm - N/A   Clear
5:53 AM 10.9 °F - 9.0 °F 92% 30.61 in 9.0 mi Calm Calm - N/A   Clear
6:53 AM 17.1 °F 7.6 °F 12.9 °F 84% 30.60 in 9.0 mi SE 6.9 mph - N/A   Clear
7:53 AM 17.1 °F 6.6 °F 12.9 °F 84% 30.62 in 10.0 mi SSE 8.1 mph - N/A   Clear
8:53 AM 19.9 °F 8.6 °F 16.0 °F 85% 30.62 in 10.0 mi SSE 10.4 mph - N/A   Clear
9:53 AM 24.1 °F 12.5 °F 16.0 °F 71% 30.62 in 10.0 mi South 12.7 mph - N/A   Clear
10:53 AM 26.1 °F 15.6 °F 18.0 °F 71% 30.61 in 10.0 mi SSE 11.5 mph - N/A   Clear
11:53 AM 28.0 °F 17.5 °F 19.0 °F 69% 30.58 in 10.0 mi South 12.7 mph - N/A   Clear
12:53 PM 28.9 °F 18.6 °F 19.9 °F 69% 30.56 in 10.0 mi South 12.7 mph - N/A   Clear
1:53 PM 30.9 °F 21.7 °F 19.9 °F 64% 30.52 in 10.0 mi South 11.5 mph - N/A   Clear
2:53 PM 30.9 °F 21.2 °F 19.9 °F 64% 30.49 in 10.0 mi South 12.7 mph - N/A   Clear
3:53 PM 30.0 °F 22.4 °F 19.9 °F 66% 30.48 in 10.0 mi SSE 8.1 mph - N/A   Clear
4:53 PM 28.0 °F 19.3 °F 19.0 °F 69% 30.46 in 10.0 mi SSE 9.2 mph - N/A   Clear
5:53 PM 27.0 °F 17.3 °F 19.0 °F 72% 30.44 in 10.0 mi SSE 10.4 mph - N/A   Clear
6:53 PM 27.0 °F 15.6 °F 19.0 °F 72% 30.41 in 10.0 mi SSE 13.8 mph - N/A   Clear
7:53 PM 27.0 °F 15.2 °F 19.0 °F 72% 30.40 in 10.0 mi SSE 15.0 mph - N/A   Clear
8:53 PM 27.0 °F 15.6 °F 19.9 °F 75% 30.38 in 10.0 mi South 13.8 mph - N/A   Clear
9:53 PM 27.0 °F 16.7 °F 19.9 °F 75% 30.38 in 10.0 mi South 11.5 mph - N/A   Clear
10:53 PM 27.0 °F 17.3 °F 21.0 °F 78% 30.36 in 10.0 mi South 10.4 mph - N/A   Clear
11:53 PM 27.0 °F 16.1 °F 21.0 °F 78% 30.33 in 10.0 mi South 12.7 mph - N/A   Clear